{"data":{"norad_id":47505,"intl_designator":"2021-006CW","name":"HAWK-2A","alt_names":[],"object_type":"PAYLOAD","status":"ACTIVE","operator":null,"country":"US","launch_date":"2021-01-24","launch_site_code":"AFETR","launch_vehicle":null,"mission":null,"orbit_class":"UNKNOWN","rcs_meters":null,"size_class":null,"mass_kg":null,"dimensions":null,"purposes":["tech_demo"],"wikipedia_slug":null,"has_3d_model":false,"image_url":null,"decayed_at":null,"tle_current":{"epoch":"2026-05-25T03:15:49.502304Z","epoch_age_seconds":59471,"freshness":"FRESH","line1":"1 47505U 21006CW  26145.13598961  .00006109  00000+0  18593-3 0  9994","line2":"2 47505  97.2339 190.5734 0004571 291.8529  68.2228 15.34357011295967","mean_motion":15.34357011,"eccentricity":0.0004571,"inclination_deg":97.2339,"raan_deg":190.5734,"arg_perigee_deg":291.8529,"mean_anomaly_deg":68.2228,"bstar":0.00018593,"rev_number":29596,"period_min":93.850387470221,"perigee_km":459.70400907794,"apogee_km":465.95802203776,"semimajor_km":6840.9680155578,"source":"CELESTRAK","updated_at":"2026-05-25T13:38:24.925483Z"}}}